TimePDT,TemperatureF,Dew PointF,Humidity,Sea Level PressureIn,VisibilityMPH,Wind Direction,Wind SpeedMPH,Gust SpeedMPH,PrecipitationIn,Events,Conditions,WindDirDegrees,DateUTC
12:56 AM,51.1,44.1,77,30.12,10.0,WNW,9.2,-,N/A,,Mostly Cloudy,290,2011-10-31 07:56:00
1:56 AM,50.0,39.0,66,30.14,10.0,WNW,12.7,24.2,N/A,,Mostly Cloudy,300,2011-10-31 08:56:00
2:56 AM,48.0,36.0,63,30.14,10.0,WNW,16.1,26.5,N/A,,Clear,290,2011-10-31 09:56:00
3:56 AM,48.2,35.6,62,30.18,10.0,WNW,17.3,29.9,N/A,,Clear,290,2011-10-31 10:56:00
4:56 AM,46.4,35.6,66,30.19,10.0,NNW,12.7,-,N/A,,Clear,340,2011-10-31 11:56:00
5:56 AM,45.0,35.1,68,30.20,10.0,NNW,16.1,26.5,N/A,,Clear,330,2011-10-31 12:56:00
6:56 AM,39.0,33.1,79,30.25,10.0,NNE,17.3,20.7,N/A,,Clear,20,2011-10-31 13:56:00
7:56 AM,37.0,30.9,79,30.29,10.0,North,6.9,-,N/A,,Clear,10,2011-10-31 14:56:00
8:56 AM,39.9,30.0,68,30.32,10.0,Calm,Calm,-,N/A,,Partly Cloudy,0,2011-10-31 15:56:00
9:56 AM,45.0,28.9,53,30.33,10.0,WNW,6.9,-,N/A,,Clear,300,2011-10-31 16:56:00
10:56 AM,46.0,28.0,50,30.34,10.0,NW,5.8,-,N/A,,Clear,310,2011-10-31 17:56:00
11:56 AM,46.4,26.6,46,30.32,10.0,NW,3.5,-,N/A,,Partly Cloudy,310,2011-10-31 18:56:00
12:56 PM,50.0,26.1,39,30.30,10.0,West,11.5,-,N/A,,Partly Cloudy,280,2011-10-31 19:56:00
1:56 PM,48.9,24.1,38,30.28,10.0,North,8.1,-,N/A,,Partly Cloudy,360,2011-10-31 20:56:00
2:56 PM,50.0,24.1,36,30.27,10.0,North,9.2,-,N/A,,Clear,350,2011-10-31 21:56:00
3:56 PM,48.0,25.0,41,30.28,10.0,North,10.4,-,N/A,,Clear,10,2011-10-31 22:56:00
4:56 PM,46.9,27.0,46,30.28,10.0,North,6.9,-,N/A,,Mostly Cloudy,350,2011-10-31 23:56:00
5:56 PM,44.1,27.0,51,30.30,10.0,NNW,6.9,-,N/A,,Mostly Cloudy,340,2011-11-01 00:56:00
6:56 PM,39.0,28.0,65,30.33,10.0,North,4.6,-,N/A,,Clear,360,2011-11-01 01:56:00
7:56 PM,37.0,27.0,67,30.35,10.0,Calm,Calm,-,N/A,,Clear,0,2011-11-01 02:56:00
8:56 PM,33.1,25.0,72,30.37,10.0,SW,4.6,-,N/A,,Clear,220,2011-11-01 03:56:00
9:56 PM,25.0,21.0,85,30.40,10.0,Calm,Calm,-,N/A,,Clear,0,2011-11-01 04:56:00
10:56 PM,21.9,18.0,85,30.42,10.0,Calm,Calm,-,N/A,,Clear,0,2011-11-01 05:56:00
11:56 PM,21.0,19.0,92,30.41,10.0,South,3.5,-,N/A,,Clear,170,2011-11-01 06:56:00